Simultaneous Nadir Overpasses (SNOs) Predictions

Prediction of SNOs near equator between AQUA and NPP Satellite Orbit:

Table of predicted SNOs near equator for the next 14.0 days since TLE Epoch: 5/29/2015
Index Date (AQUA) Time (AQUA) AQUA Lat,Lon Date (NPP) Time (NPP) NPP Lat,Lon Distance(km) Time Diff (sec)
1 05/29/2015 21:48:25 29.95,-127.80 05/29/2015 21:38:53 30.03,-127.32 47.52 572
2 05/29/2015 22:37:48 -29.95, 39.86 05/29/2015 22:29:33 -29.98, 40.03 17.11 495
3 05/29/2015 23:24:08 18.50,-149.74 05/29/2015 23:17:06 18.50,-149.74 0.03 422
4 05/30/2015 00:06:04 8.47, 23.74 05/30/2015 00:00:07 8.50, 23.73 3.51 357
5 05/30/2015 00:54:19 -13.04,-167.64 05/30/2015 00:49:38 -13.11,-167.93 31.91 281
6 05/30/2015 01:42:27 17.54, 1.02 05/30/2015 01:39:01 17.66, 0.47 59.45 206
7 05/30/2015 02:30:41 -22.15, 169.71 05/30/2015 02:28:31 -22.30, 168.90 85.04 130
8 06/01/2015 14:04:57 30.00, -11.95 06/01/2015 13:55:48 30.06, -11.56 37.92 549
9 06/01/2015 14:54:20 -29.99, 155.71 06/01/2015 14:46:28 -30.01, 155.79 7.50 472
10 06/01/2015 15:38:04 9.13, -31.80 06/01/2015 15:31:21 9.13, -31.80 0.63 403
11 06/01/2015 16:22:13 9.82, 139.90 06/01/2015 16:16:39 9.82, 139.79 12.08 334
12 06/01/2015 17:10:27 -14.44, -51.46 06/01/2015 17:06:09 -14.49, -51.84 40.93 258
13 06/01/2015 17:58:35 18.94, 117.21 06/01/2015 17:55:32 19.04, 116.57 67.82 183
14 06/01/2015 18:46:50 -23.48, -74.11 06/01/2015 18:45:02 -23.68, -74.99 92.62 108
15 06/04/2015 05:31:57 -29.95, -63.69 06/04/2015 05:21:57 -30.26, -63.15 62.87 600
16 06/04/2015 06:21:27 29.95, 103.93 06/04/2015 06:12:42 30.03, 104.21 28.38 525
17 06/04/2015 07:10:34 -29.04, -88.18 06/04/2015 07:03:05 -29.04, -88.19 1.01 449
18 06/04/2015 07:52:21 1.10, 85.78 06/04/2015 07:45:58 1.10, 85.77 1.17 383
19 06/04/2015 08:38:21 11.14,-103.95 06/04/2015 08:33:09 11.20,-104.13 21.52 312
20 06/04/2015 09:26:35 -15.76, 64.70 06/04/2015 09:22:39 -15.87, 64.25 49.71 236
21 06/04/2015 10:14:43 20.26,-126.62 06/04/2015 10:12:02 20.42,-127.33 76.00 161
22 06/06/2015 21:48:27 -29.98, 52.17 06/06/2015 21:38:47 -30.06, 52.67 49.33 580
23 06/06/2015 22:37:57 29.98,-140.21 06/06/2015 22:29:35 30.01,-140.02 18.50 502
24 06/06/2015 23:24:44 -20.60, 29.75 06/06/2015 23:17:35 -20.60, 29.75 0.59 429
25 06/07/2015 00:06:28 -7.57,-156.50 06/07/2015 00:00:25 -7.57,-156.52 2.34 363
26 06/07/2015 00:54:28 12.55, 12.23 06/07/2015 00:49:39 12.64, 11.96 30.70 289
27 06/07/2015 01:42:42 -17.17,-179.12 06/07/2015 01:39:09 -17.30,-179.65 58.47 213
28 06/07/2015 02:30:50 21.67, -10.42 06/07/2015 02:28:32 21.85, -11.21 84.03 138
29 06/09/2015 14:04:57 -29.97, 168.04 06/09/2015 13:55:41 -30.03, 168.45 39.42 556
30 06/09/2015 14:54:27 29.97, -24.33 06/09/2015 14:46:29 29.98, -24.24 8.59 478
31 06/09/2015 15:38:41 -11.37, 147.70 06/09/2015 15:31:52 -11.37, 147.69 0.45 409
32 06/09/2015 16:22:26 -9.51, -40.22 06/09/2015 16:16:46 -9.53, -40.32 11.15 340
33 06/09/2015 17:10:34 14.01, 128.42 06/09/2015 17:06:09 14.07, 128.06 39.80 265
34 06/09/2015 17:58:48 -18.62, -62.92 06/09/2015 17:55:39 -18.73, -63.54 67.14 189
35 06/09/2015 18:46:56 23.13, 105.79 06/09/2015 18:45:02 23.28, 104.91 91.94 114
36 06/12/2015 05:32:04 30.00, 116.25 06/12/2015 05:22:04 30.60, 116.72 81.15 600
37 06/12/2015 06:21:27 -29.98, -76.09 06/12/2015 06:12:36 -30.07, -75.80 29.47 531
38 06/12/2015 07:10:42 29.09, 91.77 06/12/2015 07:03:08 29.09, 91.76 0.39 454
39 06/12/2015 07:52:27 -1.47, -94.31 06/12/2015 07:45:58 -1.47, -94.31 0.24 389
40 06/12/2015 08:38:32 -10.94, 75.97 06/12/2015 08:33:16 -10.96, 75.78 21.02 316
41 06/12/2015 09:26:41 15.39,-115.40 06/12/201
